星链-30176 (STARLINK-30176 )

导读 | 星芒AI

STARLINK-30176 是 SpaceX Starlink 卫星互联网项目中的一颗低轨卫星,属于第 17 批部署的星链卫星之一。该卫星于 2023 年发射,运行在约 550 公里的轨道高度,旨在为全球用户提供高速、低延迟的互联网服务。作为星链星座的一部分,STARLINK-30176 采用先进通信技术,支持宽带接入,尤其服务于传统网络难以覆盖的偏远地区。其部署有助于提升全球网络连接的可靠性和普及率。

基本信息
目录编号:
57477
目录名称:
STARLINK-30176
国际标识:
2023-107W
轨道中心:
EARTH
卫星名称:
星链-30176
卫星全名:
星链-30176 (STARLINK-30176 )
卫星状态:
在轨 (已飞行874 天)
发射日期:
2023-07-28 UTC
国别 :
美国 (US)
星等 :
--
轨道信息
数据来源 国际轨道数据
星历时间: 2025-12-18T05:14:43+0800
1天前
查看轨道信息
半长轴: 6937.215km
偏心率: 0.0001624
轨道倾角: 43.003°
近地点辐角 267.314°
升交点赤经 62.972°
平近点角 92.751°
近地点: 557.953km
远地点: 560.207km
周期: 95.838分钟
每日圈数: 15.025367
详细信息
固有亮度:
5
最大亮度:
0.3
卫星平台:
Starlink v2.0 mini
覆盖范围:
全球
运营商:
太空探索技术公司
运营商所在国:
美国
制造商(研发单位):
太空探索技术公司
制造商所在国:
美国
使用方式:
暂无
卫星简介
星链(Starlink)计划是由太空探索技术公司(SpaceX)提出的一个巨型低轨卫星互联网星座项目,计划在2019年至2024年间在太空搭建由约1.2万颗卫星组成的“星链”网络,其中1584颗将部署在地球上空550千米处的近地轨道,并从2020年开始工作。该卫星仍在工作。
2D轨道图
3D轨道图
轨道高度分析图
轨道倾角分析图
轨道综合分析图
查看轨道综合分析图